Time,TemperatureF,DewpointF,PressureIn,WindDirection,WindDirectionDegrees,WindSpeedMPH,WindSpeedGustMPH,Humidity,HourlyPrecipIn,Conditions,Clouds,dailyrainin,SoftwareType,DateUTC
2013-01-26 00:00:00,13.3,10.9,30.06,South,182,0.0,0.0,90,0.00,,,0.00,VWS V14.00,2013-01-26 05:00:00,
2013-01-26 00:01:00,13.3,11.2,30.06,South,182,0.0,0.0,91,0.00,,,0.00,VWS V14.00,2013-01-26 05:01:00,
2013-01-26 00:06:00,13.5,11.4,30.05,South,182,0.0,0.0,91,0.00,,,0.00,VWS V14.00,2013-01-26 05:06:00,
2013-01-26 00:11:00,13.6,11.5,30.05,South,182,0.0,0.0,91,0.00,,,0.00,VWS V14.00,2013-01-26 05:11:00,
2013-01-26 00:16:00,13.7,11.6,30.05,South,182,0.0,0.0,91,0.00,,,0.00,VWS V14.00,2013-01-26 05:16:00,
2013-01-26 00:21:00,13.8,11.7,30.05,South,182,0.0,0.0,91,0.00,,,0.00,VWS V14.00,2013-01-26 05:21:00,
2013-01-26 00:26:00,13.9,11.8,30.05,South,182,0.0,0.0,91,0.00,,,0.00,VWS V14.00,2013-01-26 05:26:00,
2013-01-26 00:31:00,14.0,11.9,30.05,South,182,0.0,0.0,91,0.00,,,0.00,VWS V14.00,2013-01-26 05:31:00,
2013-01-26 00:36:00,14.0,11.6,30.05,South,182,0.0,0.0,90,0.00,,,0.00,VWS V14.00,2013-01-26 05:36:00,
2013-01-26 00:41:00,13.8,11.2,30.05,South,182,0.0,0.0,89,0.00,,,0.00,VWS V14.00,2013-01-26 05:41:00,
2013-01-26 00:46:00,13.5,10.9,30.05,South,182,0.0,0.0,89,0.00,,,0.00,VWS V14.00,2013-01-26 05:46:00,
2013-01-26 00:51:00,13.2,10.6,30.05,South,182,0.0,0.0,89,0.00,,,0.00,VWS V14.00,2013-01-26 05:51:00,
2013-01-26 00:56:00,13.0,10.4,30.05,South,182,0.0,0.0,89,0.00,,,0.00,VWS V14.00,2013-01-26 05:56:00,
2013-01-26 01:01:00,12.7,10.1,30.05,South,182,0.0,0.0,89,0.00,,,0.00,VWS V14.00,2013-01-26 06:01:00,
2013-01-26 01:06:00,12.4,9.8,30.05,South,182,0.0,0.0,89,0.00,,,0.00,VWS V14.00,2013-01-26 06:06:00,
2013-01-26 01:12:00,12.2,9.6,30.05,South,182,0.0,0.0,89,0.00,,,0.00,VWS V14.00,2013-01-26 06:12:00,
2013-01-26 01:17:00,12.0,9.6,30.04,South,182,0.0,0.0,90,0.00,,,0.00,VWS V14.00,2013-01-26 06:17:00,
2013-01-26 01:22:00,11.8,9.4,30.05,South,182,0.0,0.0,90,0.00,,,0.00,VWS V14.00,2013-01-26 06:22:00,
2013-01-26 01:27:00,11.6,9.2,30.05,South,182,0.0,0.0,90,0.00,,,0.00,VWS V14.00,2013-01-26 06:27:00,
2013-01-26 01:32:00,11.4,9.0,30.04,South,182,0.0,0.0,90,0.00,,,0.00,VWS V14.00,2013-01-26 06:32:00,
2013-01-26 01:37:00,11.2,8.9,30.04,South,182,0.0,0.0,90,0.00,,,0.00,VWS V14.00,2013-01-26 06:37:00,
2013-01-26 01:42:00,11.0,8.6,30.04,South,182,0.0,0.0,90,0.00,,,0.00,VWS V14.00,2013-01-26 06:42:00,
2013-01-26 01:47:00,10.8,8.4,30.04,South,182,0.0,0.0,90,0.00,,,0.00,VWS V14.00,2013-01-26 06:47:00,
2013-01-26 01:52:00,10.7,8.4,30.05,South,182,0.0,0.0,90,0.00,,,0.00,VWS V14.00,2013-01-26 06:52:00,
2013-01-26 01:57:00,10.6,8.2,30.05,South,182,0.0,0.0,90,0.00,,,0.00,VWS V14.00,2013-01-26 06:57:00,
2013-01-26 02:02:00,10.7,8.6,30.05,South,182,0.0,0.0,91,0.00,,,0.00,VWS V14.00,2013-01-26 07:02:00,
2013-01-26 02:07:00,10.9,8.8,30.05,South,182,0.0,0.0,91,0.00,,,0.00,VWS V14.00,2013-01-26 07:07:00,
2013-01-26 02:12:00,11.1,9.2,30.05,South,182,0.0,0.0,92,0.00,,,0.00,VWS V14.00,2013-01-26 07:12:00,
2013-01-26 02:17:00,11.3,9.4,30.05,South,182,0.0,0.0,92,0.00,,,0.00,VWS V14.00,2013-01-26 07:17:00,
2013-01-26 02:22:00,11.6,9.7,30.05,South,182,0.0,1.0,92,0.00,,,0.00,VWS V14.00,2013-01-26 07:22:00,
2013-01-26 02:27:00,11.7,9.8,30.04,South,182,0.0,1.0,92,0.00,,,0.00,VWS V14.00,2013-01-26 07:27:00,
2013-01-26 02:33:00,11.9,10.0,30.04,South,182,0.0,0.0,92,0.00,,,0.00,VWS V14.00,2013-01-26 07:33:00,
2013-01-26 02:38:00,11.9,10.0,30.04,South,182,0.0,0.0,92,0.00,,,0.00,VWS V14.00,2013-01-26 07:38:00,
2013-01-26 02:43:00,11.9,9.8,30.04,South,182,0.0,0.0,91,0.00,,,0.00,VWS V14.00,2013-01-26 07:43:00,
2013-01-26 02:48:00,11.9,9.8,30.04,South,182,0.0,0.0,91,0.00,,,0.00,VWS V14.00,2013-01-26 07:48:00,
2013-01-26 02:53:00,11.9,9.8,30.04,South,182,0.0,0.0,91,0.00,,,0.00,VWS V14.00,2013-01-26 07:53:00,
2013-01-26 02:58:00,11.8,9.7,30.03,South,182,0.0,0.0,91,0.00,,,0.00,VWS V14.00,2013-01-26 07:58:00,
2013-01-26 03:03:00,11.7,9.3,30.03,South,182,0.0,0.0,90,0.00,,,0.00,VWS V14.00,2013-01-26 08:03:00,
2013-01-26 03:08:00,11.5,9.1,30.03,South,182,0.0,0.0,90,0.00,,,0.00,VWS V14.00,2013-01-26 08:08:00,
2013-01-26 03:13:00,11.3,8.9,30.03,South,182,0.0,0.0,90,0.00,,,0.00,VWS V14.00,2013-01-26 08:13:00,
2013-01-26 03:18:00,11.2,8.9,30.03,South,182,0.0,0.0,90,0.00,,,0.00,VWS V14.00,2013-01-26 08:18:00,
2013-01-26 03:23:00,11.1,8.8,30.03,South,182,0.0,0.0,90,0.00,,,0.00,VWS V14.00,2013-01-26 08:23:00,
2013-01-26 03:29:00,11.0,8.6,30.03,South,182,0.0,0.0,90,0.00,,,0.00,VWS V14.00,2013-01-26 08:29:00,
2013-01-26 03:34:00,10.8,8.4,30.03,South,182,0.0,0.0,90,0.00,,,0.00,VWS V14.00,2013-01-26 08:34:00,
2013-01-26 03:39:00,10.5,8.1,30.04,South,182,0.0,0.0,90,0.00,,,0.00,VWS V14.00,2013-01-26 08:39:00,
2013-01-26 03:44:00,10.3,8.0,30.03,South,183,0.0,1.0,90,0.00,,,0.00,VWS V14.00,2013-01-26 08:44:00,
2013-01-26 03:49:00,10.4,8.1,30.03,South,183,0.0,1.0,90,0.00,,,0.00,VWS V14.00,2013-01-26 08:49:00,
2013-01-26 03:54:00,10.3,8.0,30.03,South,183,0.0,1.0,90,0.00,,,0.00,VWS V14.00,2013-01-26 08:54:00,
2013-01-26 03:59:00,10.2,7.9,30.04,South,183,0.0,1.0,90,0.00,,,0.00,VWS V14.00,2013-01-26 08:59:00,
2013-01-26 04:04:00,10.1,7.8,30.04,South,183,0.0,1.0,90,0.00,,,0.00,VWS V14.00,2013-01-26 09:04:00,
2013-01-26 04:09:00,10.1,7.8,30.04,South,183,0.0,1.0,90,0.00,,,0.00,VWS V14.00,2013-01-26 09:09:00,
2013-01-26 04:14:00,10.6,8.5,30.04,NW,321,0.0,3.0,91,0.00,,,0.00,VWS V14.00,2013-01-26 09:14:00,
2013-01-26 04:19:00,10.8,8.4,30.04,South,191,0.0,3.0,90,0.00,,,0.00,VWS V14.00,2013-01-26 09:19:00,
2013-01-26 04:24:00,10.7,8.4,30.04,NW,325,0.0,3.0,90,0.00,,,0.00,VWS V14.00,2013-01-26 09:24:00,
2013-01-26 04:29:00,10.6,8.0,30.04,NW,325,0.0,3.0,89,0.00,,,0.00,VWS V14.00,2013-01-26 09:29:00,
2013-01-26 04:34:00,10.3,7.7,30.04,NW,325,0.0,0.0,89,0.00,,,0.00,VWS V14.00,2013-01-26 09:34:00,
2013-01-26 04:39:00,10.1,7.5,30.04,NW,325,0.0,0.0,89,0.00,,,0.00,VWS V14.00,2013-01-26 09:39:00,
2013-01-26 04:44:00,9.9,7.3,30.04,NW,325,0.0,0.0,89,0.00,,,0.00,VWS V14.00,2013-01-26 09:44:00,
2013-01-26 04:49:00,9.7,7.1,30.04,NW,325,0.0,0.0,89,0.00,,,0.00,VWS V14.00,2013-01-26 09:49:00,
2013-01-26 04:54:00,9.6,7.0,30.04,NW,325,0.0,0.0,89,0.00,,,0.00,VWS V14.00,2013-01-26 09:54:00,
2013-01-26 04:59:00,9.4,6.8,30.04,NW,325,0.0,0.0,89,0.00,,,0.00,VWS V14.00,2013-01-26 09:59:00,
2013-01-26 05:04:00,9.2,6.6,30.04,NW,325,0.0,0.0,89,0.00,,,0.00,VWS V14.00,2013-01-26 10:04:00,
2013-01-26 05:09:00,9.0,6.4,30.05,NW,325,1.0,1.0,89,0.00,,,0.00,VWS V14.00,2013-01-26 10:09:00,
2013-01-26 05:15:00,8.9,6.6,30.05,NW,325,0.0,2.0,90,0.00,,,0.00,VWS V14.00,2013-01-26 10:15:00,
2013-01-26 05:20:00,8.7,6.1,30.05,NW,325,0.0,2.0,89,0.00,,,0.00,VWS V14.00,2013-01-26 10:20:00,
2013-01-26 05:25:00,8.5,5.9,30.05,NW,325,0.0,2.0,89,0.00,,,0.00,VWS V14.00,2013-01-26 10:25:00,
2013-01-26 05:30:00,8.3,5.7,30.05,NW,325,0.0,0.0,89,0.00,,,0.00,VWS V14.00,2013-01-26 10:30:00,
2013-01-26 05:35:00,8.1,5.5,30.05,NW,325,0.0,0.0,89,0.00,,,0.00,VWS V14.00,2013-01-26 10:35:00,
2013-01-26 05:40:00,8.0,5.7,30.06,NW,325,0.0,0.0,90,0.00,,,0.00,VWS V14.00,2013-01-26 10:40:00,
2013-01-26 05:45:00,7.8,5.5,30.06,NW,325,0.0,0.0,90,0.00,,,0.00,VWS V14.00,2013-01-26 10:45:00,
2013-01-26 05:50:00,7.6,5.3,30.06,NW,325,0.0,0.0,90,0.00,,,0.00,VWS V14.00,2013-01-26 10:50:00,
2013-01-26 05:55:00,7.5,5.2,30.06,NW,325,0.0,0.0,90,0.00,,,0.00,VWS V14.00,2013-01-26 10:55:00,
2013-01-26 06:00:00,7.4,5.1,30.06,NW,325,0.0,0.0,90,0.00,,,0.00,VWS V14.00,2013-01-26 11:00:00,
2013-01-26 06:05:00,7.3,5.0,30.07,NW,325,0.0,0.0,90,0.00,,,0.00,VWS V14.00,2013-01-26 11:05:00,
2013-01-26 06:10:00,7.2,4.9,30.06,NW,325,0.0,1.0,90,0.00,,,0.00,VWS V14.00,2013-01-26 11:10:00,
2013-01-26 06:15:00,7.2,4.9,30.07,NW,325,0.0,1.0,90,0.00,,,0.00,VWS V14.00,2013-01-26 11:15:00,
2013-01-26 06:20:00,7.1,4.8,30.07,NW,325,0.0,1.0,90,0.00,,,0.00,VWS V14.00,2013-01-26 11:20:00,
2013-01-26 06:25:00,7.0,4.7,30.07,NW,325,0.0,2.0,90,0.00,,,0.00,VWS V14.00,2013-01-26 11:25:00,
2013-01-26 06:30:00,6.9,4.6,30.07,NW,325,0.0,0.0,90,0.00,,,0.00,VWS V14.00,2013-01-26 11:30:00,
2013-01-26 06:36:00,6.9,4.6,30.07,NW,325,0.0,0.0,90,0.00,,,0.00,VWS V14.00,2013-01-26 11:36:00,
2013-01-26 06:41:00,6.8,4.5,30.07,NW,325,0.0,0.0,90,0.00,,,0.00,VWS V14.00,2013-01-26 11:41:00,
2013-01-26 06:46:00,6.7,4.4,30.08,NW,325,0.0,0.0,90,0.00,,,0.00,VWS V14.00,2013-01-26 11:46:00,
2013-01-26 06:51:00,6.6,4.3,30.08,NW,325,0.0,1.0,90,0.00,,,0.00,VWS V14.00,2013-01-26 11:51:00,
2013-01-26 06:56:00,6.6,4.3,30.08,NW,325,0.0,1.0,90,0.00,,,0.00,VWS V14.00,2013-01-26 11:56:00,
2013-01-26 07:01:00,6.5,4.2,30.08,NW,325,0.0,0.0,90,0.00,,,0.00,VWS V14.00,2013-01-26 12:01:00,
2013-01-26 07:06:00,6.5,4.2,30.08,NW,325,0.0,2.0,90,0.00,,,0.00,VWS V14.00,2013-01-26 12:06:00,
2013-01-26 07:11:00,6.6,4.5,30.09,NW,325,0.0,2.0,91,0.00,,,0.00,VWS V14.00,2013-01-26 12:11:00,
2013-01-26 07:16:00,6.8,4.7,30.09,NW,325,0.0,2.0,91,0.00,,,0.00,VWS V14.00,2013-01-26 12:16:00,
2013-01-26 07:21:00,6.8,4.5,30.09,NW,325,0.0,2.0,90,0.00,,,0.00,VWS V14.00,2013-01-26 12:21:00,
2013-01-26 07:26:00,6.7,4.4,30.10,NW,325,0.0,2.0,90,0.00,,,0.00,VWS V14.00,2013-01-26 12:26:00,
2013-01-26 07:31:00,6.8,4.5,30.10,NW,325,0.0,0.0,90,0.00,,,0.00,VWS V14.00,2013-01-26 12:31:00,
2013-01-26 07:36:00,7.1,5.0,30.10,NW,325,0.0,0.0,91,0.00,,,0.00,VWS V14.00,2013-01-26 12:36:00,
2013-01-26 07:41:00,7.3,5.2,30.10,NW,325,0.0,0.0,91,0.00,,,0.00,VWS V14.00,2013-01-26 12:41:00,
2013-01-26 07:46:00,7.5,5.4,30.10,NW,325,0.0,0.0,91,0.00,,,0.00,VWS V14.00,2013-01-26 12:46:00,
2013-01-26 07:51:00,7.8,5.7,30.10,NW,325,0.0,0.0,91,0.00,,,0.00,VWS V14.00,2013-01-26 12:51:00,
2013-01-26 07:57:00,8.0,5.9,30.11,NW,325,0.0,0.0,91,0.00,,,0.00,VWS V14.00,2013-01-26 12:57:00,
2013-01-26 08:02:00,8.2,6.1,30.11,NW,325,0.0,0.0,91,0.00,,,0.00,VWS V14.00,2013-01-26 13:02:00,
2013-01-26 08:07:00,8.3,6.2,30.11,NW,325,0.0,0.0,91,0.00,,,0.00,VWS V14.00,2013-01-26 13:07:00,
2013-01-26 08:12:00,8.7,6.6,30.11,NW,325,0.0,1.0,91,0.00,,,0.00,VWS V14.00,2013-01-26 13:12:00,
2013-01-26 08:17:00,9.4,7.6,30.11,NE,42,0.0,2.0,92,0.00,,,0.00,VWS V14.00,2013-01-26 13:17:00,
2013-01-26 08:22:00,10.1,8.2,30.12,NE,42,0.0,2.0,92,0.00,,,0.00,VWS V14.00,2013-01-26 13:22:00,
2013-01-26 08:27:00,10.9,9.0,30.12,East,82,0.0,2.0,92,0.00,,,0.00,VWS V14.00,2013-01-26 13:27:00,
2013-01-26 08:32:00,11.9,9.3,30.12,West,273,0.0,4.0,89,0.00,,,0.00,VWS V14.00,2013-01-26 13:32:00,
2013-01-26 08:37:00,12.6,9.5,30.12,SE,144,0.0,4.0,87,0.00,,,0.00,VWS V14.00,2013-01-26 13:37:00,
2013-01-26 08:42:00,13.1,9.7,30.12,North,5,0.0,4.0,86,0.00,,,0.00,VWS V14.00,2013-01-26 13:42:00,
2013-01-26 08:47:00,13.7,10.0,30.12,West,275,0.0,5.0,85,0.00,,,0.00,VWS V14.00,2013-01-26 13:47:00,
2013-01-26 08:52:00,14.4,9.9,30.13,NW,314,1.0,5.0,82,0.00,,,0.00,VWS V14.00,2013-01-26 13:52:00,
2013-01-26 08:57:00,15.0,11.1,30.13,NW,304,2.0,5.0,84,0.00,,,0.00,VWS V14.00,2013-01-26 13:57:00,
2013-01-26 09:02:00,15.5,10.4,30.13,East,84,2.0,4.0,80,0.00,,,0.00,VWS V14.00,2013-01-26 14:02:00,
2013-01-26 09:07:00,16.0,10.6,30.13,East,92,0.0,4.0,79,0.00,,,0.00,VWS V14.00,2013-01-26 14:07:00,
2013-01-26 09:12:00,16.4,10.8,30.12,East,80,1.0,5.0,78,0.00,,,0.00,VWS V14.00,2013-01-26 14:12:00,
2013-01-26 09:17:00,16.4,10.2,30.13,NW,323,0.0,5.0,76,0.00,,,0.00,VWS V14.00,2013-01-26 14:17:00,
2013-01-26 09:23:00,16.7,10.5,30.13,NE,54,2.0,5.0,76,0.00,,,0.00,VWS V14.00,2013-01-26 14:23:00,
2013-01-26 09:28:00,16.6,9.8,30.13,West,263,4.0,10.0,74,0.00,,,0.00,VWS V14.00,2013-01-26 14:28:00,
2013-01-26 09:33:00,16.7,10.5,30.13,NW,313,2.0,3.0,76,0.00,,,0.00,VWS V14.00,2013-01-26 14:33:00,
2013-01-26 09:38:00,17.1,10.6,30.13,NW,316,1.0,5.0,75,0.00,,,0.00,VWS V14.00,2013-01-26 14:38:00,
2013-01-26 09:43:00,17.1,10.3,30.13,West,265,1.0,5.0,74,0.00,,,0.00,VWS V14.00,2013-01-26 14:43:00,
2013-01-26 09:48:00,17.5,10.9,30.14,NW,315,0.0,5.0,75,0.00,,,0.00,VWS V14.00,2013-01-26 14:48:00,
2013-01-26 09:53:00,17.8,10.6,30.14,NNW,346,1.0,5.0,73,0.00,,,0.00,VWS V14.00,2013-01-26 14:53:00,
2013-01-26 09:58:00,17.3,9.5,30.14,NNW,338,4.0,8.0,71,0.00,,,0.00,VWS V14.00,2013-01-26 14:58:00,
2013-01-26 10:03:00,16.6,9.5,30.14,NW,314,1.0,7.0,73,0.00,,,0.00,VWS V14.00,2013-01-26 15:03:00,
2013-01-26 10:08:00,16.9,10.4,30.14,NE,54,1.0,7.0,75,0.00,,,0.00,VWS V14.00,2013-01-26 15:08:00,
2013-01-26 10:14:00,17.3,10.1,30.14,NE,39,0.0,7.0,73,0.00,,,0.00,VWS V14.00,2013-01-26 15:14:00,
2013-01-26 10:19:00,17.5,10.0,30.14,ESE,121,0.0,7.0,72,0.00,,,0.00,VWS V14.00,2013-01-26 15:19:00,
2013-01-26 10:24:00,18.0,10.5,30.14,ESE,107,0.0,7.0,72,0.00,,,0.00,VWS V14.00,2013-01-26 15:24:00,
2013-01-26 10:29:00,18.3,10.8,30.14,North,349,0.0,7.0,72,0.00,,,0.00,VWS V14.00,2013-01-26 15:29:00,
2013-01-26 10:34:00,18.6,10.8,30.14,WSW,241,0.0,4.0,71,0.00,,,0.00,VWS V14.00,2013-01-26 15:34:00,
2013-01-26 10:39:00,18.9,10.8,30.14,East,100,2.0,6.0,70,0.00,,,0.00,VWS V14.00,2013-01-26 15:39:00,
2013-01-26 10:44:00,18.8,10.0,30.15,NW,305,1.0,6.0,68,0.00,,,0.00,VWS V14.00,2013-01-26 15:44:00,
2013-01-26 10:49:00,18.6,10.5,30.14,West,264,0.0,6.0,70,0.00,,,0.00,VWS V14.00,2013-01-26 15:49:00,
2013-01-26 10:54:00,18.6,9.8,30.14,NNW,334,0.0,8.0,68,0.00,,,0.00,VWS V14.00,2013-01-26 15:54:00,
2013-01-26 10:59:00,18.8,10.3,30.14,North,350,2.0,8.0,69,0.00,,,0.00,VWS V14.00,2013-01-26 15:59:00,
2013-01-26 11:04:00,19.2,10.7,30.14,WSW,245,0.0,6.0,69,0.00,,,0.00,VWS V14.00,2013-01-26 16:04:00,
2013-01-26 11:10:00,19.4,10.6,30.14,NW,304,1.0,6.0,68,0.00,,,0.00,VWS V14.00,2013-01-26 16:10:00,
2013-01-26 11:14:00,19.3,10.8,30.14,NNW,330,3.0,6.0,69,0.00,,,0.00,VWS V14.00,2013-01-26 16:14:00,
2013-01-26 11:20:00,19.5,10.7,30.14,NNW,329,2.0,6.0,68,0.00,,,0.00,VWS V14.00,2013-01-26 16:20:00,
2013-01-26 11:25:00,19.6,10.8,30.14,NW,313,10.0,10.0,68,0.00,,,0.00,VWS V14.00,2013-01-26 16:25:00,
2013-01-26 11:30:00,19.3,10.5,30.14,South,184,6.0,6.0,68,0.00,,,0.00,VWS V14.00,2013-01-26 16:30:00,
2013-01-26 11:35:00,19.3,9.8,30.14,NW,309,1.0,6.0,66,0.00,,,0.00,VWS V14.00,2013-01-26 16:35:00,
2013-01-26 11:40:00,19.1,9.3,30.13,SE,138,5.0,6.0,65,0.00,,,0.00,VWS V14.00,2013-01-26 16:40:00,
2013-01-26 11:45:00,19.5,10.7,30.14,NE,42,2.0,6.0,68,0.00,,,0.00,VWS V14.00,2013-01-26 16:45:00,
2013-01-26 11:50:00,19.7,9.9,30.14,NW,309,1.0,6.0,65,0.00,,,0.00,VWS V14.00,2013-01-26 16:50:00,
2013-01-26 11:55:00,19.9,10.1,30.14,East,80,2.0,6.0,65,0.00,,,0.00,VWS V14.00,2013-01-26 16:55:00,
2013-01-26 12:00:00,20.3,10.4,30.14,East,84,0.0,2.0,65,0.00,,,0.00,VWS V14.00,2013-01-26 17:00:00,
2013-01-26 12:05:00,20.6,10.0,30.14,SSE,159,0.0,4.0,63,0.00,,,0.00,VWS V14.00,2013-01-26 17:05:00,
2013-01-26 12:10:00,20.3,8.6,30.13,West,262,0.0,7.0,60,0.00,,,0.00,VWS V14.00,2013-01-26 17:10:00,
2013-01-26 12:15:00,20.1,8.8,30.13,NW,311,2.0,7.0,61,0.00,,,0.00,VWS V14.00,2013-01-26 17:15:00,
2013-01-26 12:20:00,20.4,9.1,30.13,NE,38,2.0,7.0,61,0.00,,,0.00,VWS V14.00,2013-01-26 17:20:00,
2013-01-26 12:25:00,20.4,8.4,30.12,North,355,2.0,7.0,59,0.00,,,0.00,VWS V14.00,2013-01-26 17:25:00,
2013-01-26 12:30:00,20.6,8.6,30.12,SE,136,0.0,2.0,59,0.00,,,0.00,VWS V14.00,2013-01-26 17:30:00,
2013-01-26 12:35:00,20.9,8.5,30.12,ESE,105,4.0,7.0,58,0.00,,,0.00,VWS V14.00,2013-01-26 17:35:00,
2013-01-26 12:40:00,20.8,8.0,30.12,WSW,246,0.0,7.0,57,0.00,,,0.00,VWS V14.00,2013-01-26 17:40:00,
2013-01-26 12:45:00,21.0,7.8,30.12,West,281,3.0,7.0,56,0.00,,,0.00,VWS V14.00,2013-01-26 17:45:00,
2013-01-26 12:50:00,20.9,7.7,30.12,NNE,32,2.0,11.0,56,0.00,,,0.00,VWS V14.00,2013-01-26 17:50:00,
2013-01-26 12:55:00,21.4,8.1,30.11,NNE,13,5.0,11.0,56,0.00,,,0.00,VWS V14.00,2013-01-26 17:55:00,
2013-01-26 13:01:00,21.5,7.4,30.11,ENE,73,0.0,3.0,54,0.00,,,0.00,VWS V14.00,2013-01-26 18:01:00,
2013-01-26 13:06:00,21.8,8.1,30.11,West,272,0.0,5.0,55,0.00,,,0.00,VWS V14.00,2013-01-26 18:06:00,
2013-01-26 13:11:00,22.1,7.6,30.10,South,189,3.0,5.0,53,0.00,,,0.00,VWS V14.00,2013-01-26 18:11:00,
2013-01-26 13:16:00,22.3,7.8,30.11,NNW,337,2.0,6.0,53,0.00,,,0.00,VWS V14.00,2013-01-26 18:16:00,
2013-01-26 13:21:00,22.3,7.4,30.10,ESE,104,2.0,6.0,52,0.00,,,0.00,VWS V14.00,2013-01-26 18:21:00,
2013-01-26 13:26:00,22.7,8.1,30.10,East,80,0.0,6.0,53,0.00,,,0.00,VWS V14.00,2013-01-26 18:26:00,
2013-01-26 13:31:00,23.1,7.7,30.10,East,90,1.0,5.0,51,0.00,,,0.00,VWS V14.00,2013-01-26 18:31:00,
2013-01-26 13:36:00,23.0,6.7,30.10,ENE,78,4.0,8.0,49,0.00,,,0.00,VWS V14.00,2013-01-26 18:36:00,
2013-01-26 13:41:00,23.0,6.2,30.10,North,350,1.0,8.0,48,0.00,,,0.00,VWS V14.00,2013-01-26 18:41:00,
2013-01-26 13:46:00,23.5,7.6,30.11,NE,38,2.0,8.0,50,0.00,,,0.00,VWS V14.00,2013-01-26 18:46:00,
2013-01-26 13:51:00,23.4,7.1,30.11,NW,305,1.0,11.0,49,0.00,,,0.00,VWS V14.00,2013-01-26 18:51:00,
2013-01-26 13:56:00,23.3,7.0,30.11,ENE,63,2.0,11.0,49,0.00,,,0.00,VWS V14.00,2013-01-26 18:56:00,
2013-01-26 14:01:00,23.3,7.4,30.12,ENE,59,1.0,4.0,50,0.00,,,0.00,VWS V14.00,2013-01-26 19:01:00,
2013-01-26 14:06:00,23.4,7.5,30.12,ESE,121,2.0,4.0,50,0.00,,,0.00,VWS V14.00,2013-01-26 19:06:00,
2013-01-26 14:12:00,23.9,8.0,30.11,East,87,1.0,4.0,50,0.00,,,0.00,VWS V14.00,2013-01-26 19:12:00,
2013-01-26 14:17:00,24.3,7.9,30.11,SW,232,0.0,6.0,49,0.00,,,0.00,VWS V14.00,2013-01-26 19:17:00,
2013-01-26 14:22:00,23.8,7.4,30.11,NW,323,1.0,8.0,49,0.00,,,0.00,VWS V14.00,2013-01-26 19:22:00,
2013-01-26 14:27:00,23.7,7.8,30.11,SSE,164,2.0,8.0,50,0.00,,,0.00,VWS V14.00,2013-01-26 19:27:00,
2013-01-26 14:32:00,23.9,7.5,30.12,WSW,255,1.0,9.0,49,0.00,,,0.00,VWS V14.00,2013-01-26 19:32:00,
2013-01-26 14:37:00,23.7,7.3,30.12,SSE,167,2.0,9.0,49,0.00,,,0.00,VWS V14.00,2013-01-26 19:37:00,
2013-01-26 14:42:00,24.0,8.9,30.12,WSW,255,1.0,9.0,52,0.00,,,0.00,VWS V14.00,2013-01-26 19:42:00,
2013-01-26 14:47:00,23.4,7.9,30.12,East,82,1.0,10.0,51,0.00,,,0.00,VWS V14.00,2013-01-26 19:47:00,
2013-01-26 14:52:00,23.4,7.5,30.13,East,90,4.0,10.0,50,0.00,,,0.00,VWS V14.00,2013-01-26 19:52:00,
2013-01-26 14:57:00,23.4,7.5,30.13,SW,229,0.0,10.0,50,0.00,,,0.00,VWS V14.00,2013-01-26 19:57:00,
2013-01-26 15:02:00,23.4,8.4,30.13,West,268,0.0,3.0,52,0.00,,,0.00,VWS V14.00,2013-01-26 20:02:00,
2013-01-26 15:07:00,23.6,8.6,30.14,East,87,4.0,7.0,52,0.00,,,0.00,VWS V14.00,2013-01-26 20:07:00,
2013-01-26 15:12:00,23.4,7.5,30.14,WSW,248,1.0,7.0,50,0.00,,,0.00,VWS V14.00,2013-01-26 20:12:00,
2013-01-26 15:17:00,23.4,7.9,30.14,WSW,253,0.0,7.0,51,0.00,,,0.00,VWS V14.00,2013-01-26 20:17:00,
2013-01-26 15:22:00,23.3,7.9,30.14,WNW,284,0.0,8.0,51,0.00,,,0.00,VWS V14.00,2013-01-26 20:22:00,
2013-01-26 15:27:00,23.4,8.4,30.14,NNW,346,4.0,8.0,52,0.00,,,0.00,VWS V14.00,2013-01-26 20:27:00,
2013-01-26 15:32:00,23.2,7.3,30.14,ENE,74,2.0,6.0,50,0.00,,,0.00,VWS V14.00,2013-01-26 20:32:00,
2013-01-26 15:37:00,22.9,7.1,30.15,East,90,4.0,7.0,50,0.00,,,0.00,VWS V14.00,2013-01-26 20:37:00,
2013-01-26 15:42:00,22.8,7.0,30.15,East,84,6.0,8.0,50,0.00,,,0.00,VWS V14.00,2013-01-26 20:42:00,
2013-01-26 15:47:00,22.6,7.2,30.15,ENE,62,4.0,8.0,51,0.00,,,0.00,VWS V14.00,2013-01-26 20:47:00,
2013-01-26 15:52:00,22.6,7.2,30.15,NE,54,1.0,8.0,51,0.00,,,0.00,VWS V14.00,2013-01-26 20:52:00,
2013-01-26 15:57:00,22.6,7.2,30.15,East,100,0.0,8.0,51,0.00,,,0.00,VWS V14.00,2013-01-26 20:57:00,
2013-01-26 16:02:00,22.4,7.0,30.15,SSW,208,0.0,2.0,51,0.00,,,0.00,VWS V14.00,2013-01-26 21:02:00,
2013-01-26 16:08:00,22.3,6.9,30.15,ENE,77,2.0,6.0,51,0.00,,,0.00,VWS V14.00,2013-01-26 21:08:00,
2013-01-26 16:13:00,22.1,6.8,30.15,North,360,0.0,7.0,51,0.00,,,0.00,VWS V14.00,2013-01-26 21:13:00,
2013-01-26 16:18:00,22.0,7.5,30.15,North,360,0.0,7.0,53,0.00,,,0.00,VWS V14.00,2013-01-26 21:18:00,
2013-01-26 16:23:00,21.9,7.0,30.15,North,360,0.0,7.0,52,0.00,,,0.00,VWS V14.00,2013-01-26 21:23:00,
2013-01-26 16:28:00,21.8,6.9,30.15,North,355,2.0,7.0,52,0.00,,,0.00,VWS V14.00,2013-01-26 21:28:00,
2013-01-26 16:33:00,21.7,6.4,30.16,NW,323,0.0,4.0,51,0.00,,,0.00,VWS V14.00,2013-01-26 21:33:00,
2013-01-26 16:38:00,21.6,6.7,30.16,NNW,329,0.0,4.0,52,0.00,,,0.00,VWS V14.00,2013-01-26 21:38:00,
2013-01-26 16:43:00,21.5,5.8,30.16,NNW,342,1.0,9.0,50,0.00,,,0.00,VWS V14.00,2013-01-26 21:43:00,
2013-01-26 16:48:00,21.4,5.7,30.16,NW,323,1.0,9.0,50,0.00,,,0.00,VWS V14.00,2013-01-26 21:48:00,
2013-01-26 16:53:00,21.3,5.1,30.17,East,79,0.0,9.0,49,0.00,,,0.00,VWS V14.00,2013-01-26 21:53:00,
2013-01-26 16:58:00,21.2,4.6,30.17,East,87,0.0,9.0,48,0.00,,,0.00,VWS V14.00,2013-01-26 21:58:00,
2013-01-26 17:03:00,21.1,4.9,30.17,East,86,0.0,2.0,49,0.00,,,0.00,VWS V14.00,2013-01-26 22:03:00,
2013-01-26 17:09:00,20.9,4.8,30.18,NNW,331,3.0,5.0,49,0.00,,,0.00,VWS V14.00,2013-01-26 22:09:00,
2013-01-26 17:14:00,20.8,4.7,30.18,NW,306,0.0,10.0,49,0.00,,,0.00,VWS V14.00,2013-01-26 22:14:00,
2013-01-26 17:19:00,20.7,4.6,30.18,North,355,1.0,10.0,49,0.00,,,0.00,VWS V14.00,2013-01-26 22:19:00,
2013-01-26 17:24:00,20.6,4.5,30.19,NW,315,0.0,10.0,49,0.00,,,0.00,VWS V14.00,2013-01-26 22:24:00,
2013-01-26 17:29:00,20.4,5.2,30.19,North,11,1.0,10.0,51,0.00,,,0.00,VWS V14.00,2013-01-26 22:29:00,
2013-01-26 17:34:00,20.2,4.1,30.20,NNE,14,3.0,7.0,49,0.00,,,0.00,VWS V14.00,2013-01-26 22:34:00,
2013-01-26 17:39:00,20.1,4.5,30.20,NE,35,0.0,7.0,50,0.00,,,0.00,VWS V14.00,2013-01-26 22:39:00,
2013-01-26 17:44:00,19.9,4.7,30.20,WNW,296,0.0,7.0,51,0.00,,,0.00,VWS V14.00,2013-01-26 22:44:00,
2013-01-26 17:49:00,19.7,4.1,30.20,NW,318,0.0,7.0,50,0.00,,,0.00,VWS V14.00,2013-01-26 22:49:00,
2013-01-26 17:54:00,19.5,4.3,30.21,NNE,13,1.0,7.0,51,0.00,,,0.00,VWS V14.00,2013-01-26 22:54:00,
2013-01-26 17:59:00,19.3,4.1,30.21,West,259,0.0,7.0,51,0.00,,,0.00,VWS V14.00,2013-01-26 22:59:00,
2013-01-26 18:04:00,19.1,4.0,30.21,West,259,0.0,2.0,51,0.00,,,0.00,VWS V14.00,2013-01-26 23:04:00,
2013-01-26 18:09:00,18.8,4.9,30.21,West,259,2.0,2.0,54,0.00,,,0.00,VWS V14.00,2013-01-26 23:09:00,
2013-01-26 18:14:00,18.5,4.6,30.21,WSW,252,0.0,2.0,54,0.00,,,0.00,VWS V14.00,2013-01-26 23:14:00,
2013-01-26 18:19:00,18.3,4.4,30.22,WSW,252,0.0,2.0,54,0.00,,,0.00,VWS V14.00,2013-01-26 23:19:00,
2013-01-26 18:24:00,18.2,3.5,30.22,NE,43,0.0,3.0,52,0.00,,,0.00,VWS V14.00,2013-01-26 23:24:00,
2013-01-26 18:29:00,18.1,3.5,30.22,SW,219,3.0,7.0,52,0.00,,,0.00,VWS V14.00,2013-01-26 23:29:00,
2013-01-26 18:34:00,18.1,3.9,30.23,NNW,348,1.0,5.0,53,0.00,,,0.00,VWS V14.00,2013-01-26 23:34:00,
2013-01-26 18:40:00,18.2,3.5,30.23,East,81,0.0,6.0,52,0.00,,,0.00,VWS V14.00,2013-01-26 23:40:00,
2013-01-26 18:44:00,18.3,3.6,30.24,NE,41,0.0,6.0,52,0.00,,,0.00,VWS V14.00,2013-01-26 23:44:00,
2013-01-26 18:50:00,18.2,3.5,30.24,NE,41,0.0,6.0,52,0.00,,,0.00,VWS V14.00,2013-01-26 23:50:00,
2013-01-26 18:55:00,18.1,3.9,30.24,NE,41,1.0,6.0,53,0.00,,,0.00,VWS V14.00,2013-01-26 23:55:00,
2013-01-26 19:00:00,17.8,4.0,30.24,NE,41,0.0,0.0,54,0.00,,,0.00,VWS V14.00,2013-01-27 00:00:00,
2013-01-26 19:05:00,17.5,3.3,30.24,NE,41,0.0,1.0,53,0.00,,,0.00,VWS V14.00,2013-01-27 00:05:00,
2013-01-26 19:10:00,17.1,3.7,30.24,NE,41,0.0,2.0,55,0.00,,,0.00,VWS V14.00,2013-01-27 00:10:00,
2013-01-26 19:15:00,17.0,3.2,30.24,WNW,287,1.0,2.0,54,0.00,,,0.00,VWS V14.00,2013-01-27 00:15:00,
2013-01-26 19:20:00,17.1,3.7,30.24,WNW,288,2.0,4.0,55,0.00,,,0.00,VWS V14.00,2013-01-27 00:20:00,
2013-01-26 19:25:00,17.2,3.4,30.24,NW,324,0.0,5.0,54,0.00,,,0.00,VWS V14.00,2013-01-27 00:25:00,
2013-01-26 19:30:00,17.2,3.8,30.24,SSE,151,1.0,4.0,55,0.00,,,0.00,VWS V14.00,2013-01-27 00:30:00,
2013-01-26 19:36:00,17.1,3.7,30.25,SE,138,0.0,4.0,55,0.00,,,0.00,VWS V14.00,2013-01-27 00:36:00,
2013-01-26 19:41:00,16.9,3.5,30.25,North,355,0.0,4.0,55,0.00,,,0.00,VWS V14.00,2013-01-27 00:41:00,
2013-01-26 19:46:00,16.8,3.5,30.25,East,96,4.0,4.0,55,0.00,,,0.00,VWS V14.00,2013-01-27 00:46:00,
2013-01-26 19:51:00,17.0,3.2,30.25,North,355,2.0,7.0,54,0.00,,,0.00,VWS V14.00,2013-01-27 00:51:00,
2013-01-26 19:56:00,17.0,3.6,30.25,WNW,294,0.0,7.0,55,0.00,,,0.00,VWS V14.00,2013-01-27 00:56:00,
2013-01-26 20:01:00,16.9,3.5,30.25,NW,312,2.0,6.0,55,0.00,,,0.00,VWS V14.00,2013-01-27 01:01:00,
2013-01-26 20:06:00,16.9,3.5,30.25,ENE,68,0.0,6.0,55,0.00,,,0.00,VWS V14.00,2013-01-27 01:06:00,
2013-01-26 20:11:00,16.7,4.1,30.26,East,90,2.0,6.0,57,0.00,,,0.00,VWS V14.00,2013-01-27 01:11:00,
2013-01-26 20:16:00,16.6,3.7,30.26,NE,50,0.0,6.0,56,0.00,,,0.00,VWS V14.00,2013-01-27 01:16:00,
2013-01-26 20:22:00,16.4,3.8,30.26,East,88,1.0,6.0,57,0.00,,,0.00,VWS V14.00,2013-01-27 01:22:00,
2013-01-26 20:27:00,16.4,3.5,30.26,SW,224,0.0,6.0,56,0.00,,,0.00,VWS V14.00,2013-01-27 01:27:00,
2013-01-26 20:32:00,16.3,3.8,30.26,NNE,12,2.0,3.0,57,0.00,,,0.00,VWS V14.00,2013-01-27 01:32:00,
2013-01-26 20:37:00,16.2,4.0,30.26,SE,138,1.0,8.0,58,0.00,,,0.00,VWS V14.00,2013-01-27 01:37:00,
2013-01-26 20:42:00,16.0,3.5,30.26,NNW,339,0.0,8.0,57,0.00,,,0.00,VWS V14.00,2013-01-27 01:42:00,
2013-01-26 20:47:00,15.8,3.7,30.27,ENE,74,0.0,8.0,58,0.00,,,0.00,VWS V14.00,2013-01-27 01:47:00,
2013-01-26 20:52:00,15.7,3.6,30.27,ENE,72,0.0,8.0,58,0.00,,,0.00,VWS V14.00,2013-01-27 01:52:00,
2013-01-26 20:57:00,15.6,3.8,30.27,ENE,72,0.0,8.0,59,0.00,,,0.00,VWS V14.00,2013-01-27 01:57:00,
2013-01-26 21:02:00,15.3,3.5,30.27,ENE,72,0.0,2.0,59,0.00,,,0.00,VWS V14.00,2013-01-27 02:02:00,
2013-01-26 21:07:00,15.2,3.8,30.28,WNW,296,0.0,4.0,60,0.00,,,0.00,VWS V14.00,2013-01-27 02:07:00,
2013-01-26 21:12:00,15.0,4.0,30.28,WNW,296,0.0,4.0,61,0.00,,,0.00,VWS V14.00,2013-01-27 02:12:00,
2013-01-26 21:17:00,14.8,3.8,30.28,WNW,296,0.0,4.0,61,0.00,,,0.00,VWS V14.00,2013-01-27 02:17:00,
2013-01-26 21:22:00,14.6,3.6,30.28,WNW,296,0.0,4.0,61,0.00,,,0.00,VWS V14.00,2013-01-27 02:22:00,
2013-01-26 21:27:00,14.4,3.8,30.29,SSW,209,0.0,4.0,62,0.00,,,0.00,VWS V14.00,2013-01-27 02:27:00,
2013-01-26 21:32:00,14.4,3.8,30.29,WNW,292,0.0,2.0,62,0.00,,,0.00,VWS V14.00,2013-01-27 02:32:00,
2013-01-26 21:37:00,14.6,4.0,30.29,WNW,292,0.0,2.0,62,0.00,,,0.00,VWS V14.00,2013-01-27 02:37:00,
2013-01-26 21:42:00,14.7,4.1,30.29,East,82,2.0,4.0,62,0.00,,,0.00,VWS V14.00,2013-01-27 02:42:00,
2013-01-26 21:47:00,15.1,4.1,30.30,NNW,336,1.0,8.0,61,0.00,,,0.00,VWS V14.00,2013-01-27 02:47:00,
2013-01-26 21:53:00,15.4,4.0,30.30,NW,319,0.0,8.0,60,0.00,,,0.00,VWS V14.00,2013-01-27 02:53:00,
2013-01-26 21:58:00,15.3,4.3,30.30,South,186,1.0,8.0,61,0.00,,,0.00,VWS V14.00,2013-01-27 02:58:00,
2013-01-26 22:03:00,15.0,4.3,30.30,East,92,1.0,2.0,62,0.00,,,0.00,VWS V14.00,2013-01-27 03:03:00,
2013-01-26 22:08:00,14.9,3.9,30.30,North,355,0.0,6.0,61,0.00,,,0.00,VWS V14.00,2013-01-27 03:08:00,
2013-01-26 22:13:00,14.8,4.5,30.30,ESE,109,0.0,6.0,63,0.00,,,0.00,VWS V14.00,2013-01-27 03:13:00,
2013-01-26 22:18:00,15.0,4.3,30.30,North,9,0.0,6.0,62,0.00,,,0.00,VWS V14.00,2013-01-27 03:18:00,
2013-01-26 22:23:00,15.1,4.4,30.30,NE,36,0.0,6.0,62,0.00,,,0.00,VWS V14.00,2013-01-27 03:23:00,
2013-01-26 22:28:00,15.0,4.7,30.30,NE,36,0.0,6.0,63,0.00,,,0.00,VWS V14.00,2013-01-27 03:28:00,
2013-01-26 22:33:00,14.6,4.7,30.30,NE,36,0.0,2.0,64,0.00,,,0.00,VWS V14.00,2013-01-27 03:33:00,
2013-01-26 22:38:00,14.3,4.7,30.31,NE,41,0.0,2.0,65,0.00,,,0.00,VWS V14.00,2013-01-27 03:38:00,
2013-01-26 22:43:00,14.1,4.5,30.31,NE,49,1.0,3.0,65,0.00,,,0.00,VWS V14.00,2013-01-27 03:43:00,
2013-01-26 22:48:00,14.5,4.9,30.31,ESE,120,2.0,4.0,65,0.00,,,0.00,VWS V14.00,2013-01-27 03:48:00,
2013-01-26 22:53:00,14.9,4.9,30.32,NW,321,0.0,4.0,64,0.00,,,0.00,VWS V14.00,2013-01-27 03:53:00,
2013-01-26 22:58:00,14.9,4.9,30.32,NW,321,0.0,4.0,64,0.00,,,0.00,VWS V14.00,2013-01-27 03:58:00,
2013-01-26 23:03:00,14.9,5.3,30.32,WSW,255,1.0,4.0,65,0.00,,,0.00,VWS V14.00,2013-01-27 04:03:00,
2013-01-26 23:08:00,14.9,5.3,30.32,East,89,0.0,4.0,65,0.00,,,0.00,VWS V14.00,2013-01-27 04:08:00,
2013-01-26 23:14:00,14.8,5.2,30.33,East,89,1.0,4.0,65,0.00,,,0.00,VWS V14.00,2013-01-27 04:14:00,
2013-01-26 23:19:00,14.8,5.5,30.33,NNE,17,0.0,5.0,66,0.00,,,0.00,VWS V14.00,2013-01-27 04:19:00,
2013-01-26 23:24:00,14.8,5.5,30.33,East,98,0.0,5.0,66,0.00,,,0.00,VWS V14.00,2013-01-27 04:24:00,
2013-01-26 23:29:00,14.7,5.4,30.33,SSE,160,5.0,8.0,66,0.00,,,0.00,VWS V14.00,2013-01-27 04:29:00,
2013-01-26 23:34:00,14.8,5.5,30.33,SSE,167,2.0,4.0,66,0.00,,,0.00,VWS V14.00,2013-01-27 04:34:00,
2013-01-26 23:39:00,14.8,5.5,30.33,West,270,0.0,4.0,66,0.00,,,0.00,VWS V14.00,2013-01-27 04:39:00,
2013-01-26 23:44:00,14.8,5.5,30.33,NE,51,1.0,5.0,66,0.00,,,0.00,VWS V14.00,2013-01-27 04:44:00,
2013-01-26 23:49:00,14.7,5.4,30.33,NE,51,0.0,5.0,66,0.00,,,0.00,VWS V14.00,2013-01-27 04:49:00,
2013-01-26 23:54:00,14.4,5.1,30.33,NE,51,0.0,5.0,66,0.00,,,0.00,VWS V14.00,2013-01-27 04:54:00,
2013-01-26 23:59:00,14.1,5.5,30.33,NNE,30,1.0,5.0,68,0.00,,,0.00,VWS V14.00,2013-01-27 04:59:00,